Regional Weather Roundup
Issued by NWS Grand Forks, ND

Home | Current Version | Previous Version | Text Only | Print | Product List | Glossary On
Versions: 1 2 3 4 5 6 7 8 9 10 11 12 13 14 15 16 17 18 19 20 21 22 23 24 25 26 27 28 29 30 31 32 33 34 35 36 37 38 39 40 41 42 43 44 45 46 47 48 49 50
000
ASUS43 KFGF 270331
RWRFGF
PRAIRIE TO PINES  WEATHER ROUNDUP
NATIONAL WEATHER SERVICE EASTERN NORTH DAKOTA/GRAND FORKS ND
1000 PM CDT MON SEP 26 2016

 **SATELLITE DATA USED TO AUGMENT SKY COVER AT AUTOMATED STATIONS**
 *****  WEATHER ACROSS EASTERN NORTH DAKOTA  *****

CITY           SKY/WX    TMP DP  RH WIND       PRES   REMARKS
GRAND FORKS    CLEAR     45  38  76 NW7       29.94R
GRAND FRKS AFB CLEAR     46  37  68 NW5       29.94S
DEVILS LAKE    CLEAR     50  38  63 NW12      30.00S
FARGO          CLEAR     54  31  41 W13       29.94F
WAHPETON ARPT  CLEAR     48  32  53 NW8       29.96S
$$

 ***** WEATHER ACROSS CENTRAL AND WESTERN NORTH DAKOTA  *****

CITY           SKY/WX    TMP DP  RH WIND       PRES   REMARKS
BISMARCK       CLEAR     52  38  58 W3        30.08S
MINOT          CLEAR     54  38  54 W8        30.05S
JAMESTOWN      CLEAR     48  38  68 NW9       30.00S
MINOT AFB      CLEAR     47  39  74 W9        30.04S
GARRISON         N/A     47  39  74 NW6       30.07S
WILLISTON      CLEAR     49  41  74 CALM      30.08F
DICKINSON      CLEAR     49  38  65 W5        30.10F
HETTINGER      CLEAR     45  39  79 W5        30.15F
$$

 *****  OTHER AIRPORT OBSERVATIONS IN OUR AREA  *****

CITY           SKY/WX    TMP DP  RH WIND       PRES   REMARKS
WALHALLA       FAIR      46  43  87 NW5       29.96S
GRAFTON AIRPOR FAIR      48  46  93 NW7       29.96S
VALLEY CITY AR FAIR      46  37  71 W10G16    30.01S
CANDO          FAIR      45  34  65 W9        30.02S
CAVALIER APRT  FAIR      46  45  93 NW6       29.94F
GWINNER        FAIR      46  36  66 W10       30.00S
SHEYENNE NWR     N/A     51  33  50 W7        29.95S
ROLLA          FAIR      50  32  50 NW15      30.02S
 ***** THE ABOVE OBSERVATIONS ARE NON NWS ARE NOT QUALITY
       CONTROLLED AND MAY MIS-REPORT RAIN FOR SNOW...
$$

  *****  WEATHER ACROSS NORTHERN MINNESOTA  *****

CITY           SKY/WX    TMP DP  RH WIND       PRES   REMARKS
FLAG ISLAND    CLOUDY    52  46  82 NW24      29.77F
WARROAD        CLOUDY    52  45  76 NW20G28   29.83F
ROSEAU         CLOUDY    54  45  71 NW16G22   29.85S
HALLOCK        CLEAR     46  45  93 NW7       29.91F
THF RVR FALLS  CLEAR     48  43  82 NW8       29.91F
BAUDETTE       CLOUDY    51  44  77 NW15G28   29.79S
WASKISH        CLOUDY    52  45  76 NW20G28   29.81S
CROOKSTON      CLEAR     48  45  87 NW6       29.93F
STEPHEN NDAWN    N/A     46  45  93 NW6         N/A
GREENBUSH NDAW   N/A     46  43  87 NW10        N/A
$$
  *****  WEATHER ACROSS CENTRAL AND WEST MINNESOTA  *****

CITY           SKY/WX    TMP DP  RH WIND       PRES   REMARKS
FOSSTON        CLEAR     45  41  87 NW7       29.91F
BEMIDJI        PTCLDY    48  40  75 NW15      29.86S
PARK RAPIDS    CLEAR     51  40  65 NW13      29.89R
ELBOW LAKE     FAIR      46  33  60 NW8       29.95F
WADENA         CLEAR     48  39  71 W5        29.90S
DETROIT LAKES  CLEAR     50  37  62 NW8       29.93R
MOORHEAD       CLEAR     54  30  40 NW13      29.95S
FERGUS FALLS   CLEAR     45  36  70 W9        29.96S
MORRIS MN      CLEAR     52  34  50 W12       29.95S
STAPLES        CLEAR     48  39  71 W7        29.88F
$$
  *****  WEATHER ELSEWHERE ACROSS MINNESOTA  *****

CITY           SKY/WX    TMP DP  RH WIND       PRES   REMARKS
DULUTH         CLOUDY    51  44  77 NW20G26   29.71S
INTRNTL FALLS  LGT RAIN  50  47  89 NW14G25   29.71S
ELY            RAIN      48  46  93 W13       29.63F
CLOQUET        CLOUDY    54  41  62 W20G28    29.74F
WHEATON        CLEAR     54  37  54 W8        29.99S
BRAINERD       CLOUDY    55  41  59 NW16G23   29.87S
HIBBING        LGT RAIN  48  45  89 W13G24    29.73F
ALEXANDRIA     CLEAR     53  32  44 W13       29.93F
SAINT CLOUD    CLEAR     53  40  61 W9        29.88F
MINNEAPOLIS    CLEAR     58  35  42 W14       29.87F
$$

  *****  WEATHER ACROSS SOUTH DAKOTA  *****

CITY           SKY/WX    TMP DP  RH WIND       PRES   REMARKS
SIOUX FALLS    CLEAR     54  37  52 W8        30.04S
BROOKINGS      CLEAR     50  34  54 NW7       30.03S
WATERTOWN      CLEAR     55  37  50 NW9       30.02F
HURON          CLEAR     48  34  58 W8        30.06S
SISSETON         N/A     55  34  45 NW10      29.97F
ABERDEEN       CLEAR     55  35  47 NW9       30.04F
MITCHELL       CLEAR     55  38  52 W7        30.07S
PIERRE         CLEAR     55  37  50 N8        30.10S
MOBRIDGE       CLEAR     47  37  68 CALM      30.08S
RAPID CITY     CLEAR     49  40  71 W7        30.20S
$$

  *****  SOME WEATHER IN NEARBY STATES *****

CITY           SKY/WX    TMP DP  RH WIND       PRES   REMARKS
GLASGOW MT     CLEAR     54  44  69 SE8       30.08S
GREAT FALLS MT CLEAR     64  40  41 SW14      30.10S
CHEYENNE WY    CLEAR     56  38  50 NE5       30.38R
SCOTTSBLUFF NE CLEAR     55  44  66 N5        30.26S
OMAHA NE       CLEAR     60  48  64 CALM      30.08S
DES MOINES IA  CLEAR     59  45  59 SW7       30.02F
DAVENPORT IA   CLEAR     56  41  57 SW8       29.97F
CHICAGO IL     CLEAR     59  35  40 SW9       29.93F
EAU CLAIRE WI  PTCLDY    52  39  61 W8        29.81F
LA CROSSE WI   CLEAR     61  37  41 W13       29.86F
$$

  *****  SOME NATIONAL WEATHER *****

CITY           SKY/WX    TMP DP  RH WIND       PRES   REMARKS
LA GUARDIA NY  CLOUDY    70  58  65 S13       30.01F
RALEIGH NC     CLOUDY    72  67  84 NW6       30.05S
ATLANTA GA     MOCLDY    78  66  66 SE3       30.03S
NEW ORLEANS LA MOCLDY    82  73  74 CALM      29.99R
OKLAHOMA CITY  CLOUDY    62  46  55 NW5       30.20R
ALBUQUERQUE NM PTCLDY    64  31  28 NE10      30.33R
SALT LAKE CITY CLEAR     62  49  62 CALM      30.26S
LOS ANGELES CA PTCLDY    83  47  28 W8        29.86R
BOISE ID       CLEAR     72  40  31 CALM      30.14R
SEATTLE WA     PTCLDY    69  54  58 N8        30.03R
$$

*** WEATHER ACROSS MANITOBA...SASKATCHEWAN AND ONTARIO ***
                ***ONTARIO***

CITY           SKY/WX    TMP DP  RH WIND       PRES   REMARKS
GERALDTON        N/A     46  46 100 CALM      29.34S FOG
THUNDER BAY    CLOUDY    52  46  82 W12G18    29.45F
SIOUX LOOKOUT  DRIZZLE   46  46 100 NW17G24   29.56R
TORONTO        PTCLDY    57  50  77 SW10G17   29.85F
BIG TROUT LK   LGT RAIN  46  45  93 N12G22    29.51S FOG
PICKLE LAKE    NOT AVBL
DRYDEN         LGT RAIN  48  46  93 NW7G24    29.62S
KENORA         LGT RAIN  50  46  87 NW14G22   29.73S
$$
                *** MANITOBA***

CITY           SKY/WX    TMP DP  RH WIND       PRES   REMARKS
BRANDON        CLEAR     45  34  65 NW5       30.00S
DAUPHIN        CLEAR     43  36  75 W3        29.99R
ISLAND LAKE    LGT RAIN  48  46  93 N18G32    29.77S
PILOT MOUND      N/A     45  32  61 N7          N/A
THE PAS        CLEAR     52  43  71 NW8       30.01R
THOMPSON       MOCLDY    46  39  76 NW6       29.94F
WINNIPEG       PTCLDY    48  41  76 NW14      29.92S
LYNN LAKE      CLEAR     37  36  93 N2        30.00F
CHURCHILL      LGT RAIN  43  43 100 N28G35    29.86R
GILLAM         CLOUDY    46  41  81 N24       29.83R
$$
                ***SASKATCHEWAN***

CITY           SKY/WX    TMP DP  RH WIND       PRES   REMARKS
ESTEVAN        CLEAR     46  41  81 NW5       30.06F
KINDERSLEY     PTCLDY    57  41  54 SE12      29.95F
LLOYDMINSTER   PTCLDY    55  43  62 S10       29.90F
PRINCE ALBERT  PTCLDY    43  37  81 E3        30.00F
REGINA         CLEAR     52  39  62 SE2       30.06S
YORKTON        CLEAR     46  37  71 W9        30.03S
N. BATTLEFORD  CLEAR     52  41  66 SE10      29.97F
LA RONGE       CLEAR     50  41  71 CALM      29.98F
SASKATOON      CLEAR     52  39  62 SE5       30.02F
SWIFT CURRENT  CLEAR     52  41  66 S10       30.01F
$$
NOTE: THESE ARE AUTOMATED STATIONS WITH LIMITED QUALITY CONTROL
      "FAIR" INDICATES FEW OR NO CLOUDS BELOW 12,000 FEET WITH NO
      SIGNIFICANT WEATHER AND/OR OBSTRUCTIONS TO VISIBILITY.
      SKY/WX - SKY CONDITION AND SIGNIFICANT WEATHER.
      TMP - AIR TEMPERATURE.    DP   - DEWPOINT TEMPERATURE.
      RH  - RELATIVE HUMIDITY.  PRES - PRESSURE.
      HX  - HEAT INDEX.         WCI  - WIND CHILL INDEX.
$




USA.gov is the U.S. government's official web portal to all federal, state and local government web resources and services.